Cloud_Cover
0 0 49 22 100 100 100 100 100 44 34 73 7 100 100 100 100 100 99 93 22 89 100 0 74 5 5 5 61 5 67 100 16 5 10 5 80 11 5 95 87 0 1 5
0 0 70 92 78 100 100 100 87 90 12 4 100 17 100 96 100 100 100 100 100 98 46 1 0 1 5 5 5 50 9 90 16 35 97 40 68 18 56 93 7 4 7 31
2 47 9 83 87 100 100 84 100 90 9 28 100 100 99 100 100 96 91 100 100 97 70 78 0 3 0 2 5 5 5 96 98 98 98 58 87 99 42 98 5 5 5 83
0 38 77 97 11 57 75 79 48 5 4 3 65 88 89 100 100 100 100 100 100 96 16 100 80 0 3 0 0 4 5 5 10 100 100 78 100 97 100 100 48 41 10 95
0 0 0 0 0 5 56 41 100 44 5 3 90 52 10 100 100 69 24 96 87 82 86 16 100 73 5 2 0 4 7 5 5 5 97 100 100 100 96 20 6 76 16 6
0 0 0 0 0 0 5 1 0 1 10 14 100 100 33 100 100 100 100 25 100 7 20 26 89 100 90 22 5 0 5 35 6 5 5 71 5 80 5 2 4 0 0 0
0 0 0 0 0 0 0 0 26 100 71 39 69 68 14 100 100 100 100 44 0 2 5 85 100 100 78 100 39 0 0 4 46 5 5 5 5 4 0 3 58 96 77 21
15 2 0 0 0 32 11 0 100 100 100 74 92 74 100 100 100 28 5 0 2 0 5 100 100 100 100 100 92 100 45 0 0 5 5 5 5 5 2 4 0 3 15 100
100 21 0 0 0 9 72 0 77 65 83 100 100 9 7 9 30 1 4 1 0 0 2 99 100 100 100 100 100 100 37 0 15 0 5 5 5 4 3 4 0 5 15 100
32 91 3 0 0 0 0 42 12 76 10 17 48 92 100 19 2 3 12 48 39 4 13 12 99 100 100 100 90 100 73 97 100 100 2 0 0 0 3 50 57 7 15 99
15 76 97 4 0 0 2 0 0 4 93 100 100 82 42 8 5 34 16 5 1 30 0 0 0 92 100 98 95 100 16 45 49 100 85 8 0 0 0 8 36 5 17 53
100 74 86 40 89 31 12 100 28 7 35 2 4 91 26 57 6 21 0 4 0 0 0 0 0 0 40 100 26 100 93 7 20 79 100 100 2 0 3 0 0 0 1 8
6 100 37 58 94 95 10 14 0 5 57 99 100 92 89 95 58 68 32 33 3 0 0 0 1 0 0 0 82 43 42 42 49 94 65 100 33 0 0 15 2 53 0 0
7 63 100 100 58 91 100 25 54 3 16 77 100 91 65 71 68 16 80 55 40 0 0 0 0 0 0 0 22 33 95 56 97 35 36 100 100 0 0 0 89 0 0 0
100 22 100 98 79 100 79 47 63 100 46 6 61 100 88 93 88 33 5 4 47 2 0 0 14 77 30 28 18 96 4 99 72 69 12 100 19 53 0 0 4 1 5 4
100 100 23 100 100 83 95 5 0 3 2 5 4 0 0 4 5 1 2 0 0 0 0 4 0 2 13 65 61 100 32 3 66 84 73 80 100 100 23 0 0 5 5 5
77 100 100 84 95 100 67 5 50 89 25 5 13 83 29 37 14 5 5 0 0 0 25 61 29 0 0 3 2 0 4 0 100 76 100 85 100 100 100 20 1 0 5 64
100 99 99 100 76 96 100 80 100 31 1 1 1 0 0 0 1 0 0 0 0 3 100 5 28 0 36 52 67 49 0 0 45 100 96 99 100 100 100 100 100 99 8 61
96 69 100 100 72 45 38 98 100 47 4 0 0 0 5 5 0 0 0 1 0 0 1 0 0 3 97 53 23 15 8 1 48 23 40 11 21 100 100 100 100 100 100 100
98 100 99 100 100 32 81 100 93 68 2 5 0 0 0 0 0 40 3 1 4 2 0 0 30 43 4 19 21 98 66 97 97 75 80 100 100 100 100 100 100 100 100 100
34 79 37 100 100 100 20 100 100 21 5 0 0 0 0 0 1 0 0 3 3 0 17 19 6 30 44 48 68 85 83 100 100 89 94 100 100 100 100 100 100 100 100 100
100 87 5 28 98 100 10 8 71 22 5 5 0 0 0 0 0 0 0 1 0 4 87 95 11 29 16 8 17 95 99 69 67 88 93 100 100 100 100 100 100 100 100 100
66 94 84 99 89 31 99 8 70 21 5 5 0 0 0 0 0 0 0 97 20 100 100 43 99 4 20 10 34 31 99 99 92 100 100 100 100 100 100 100 100 100 100 100
100 100 100 100 97 94 100 21 28 70 5 5 0 0 1 100 0 7 56 83 28 17 92 100 9 17 11 23 87 100 100 100 100 100 100 100 100 100 100 100 100 100 100 100
100 100 100 100 100 48 100 12 100 78 18 5 0 37 91 19 0 14 35 28 24 32 97 100 96 54 88 100 100 100 100 100 100 100 100 100 100 100 100 100 100 100 100 100
100 87 100 100 100 100 100 18 100 100 68 5 2 6 9 2 0 0 0 3 97 100 64 43 92 100 100 100 100 100 100 100 93 100 81 100 100 100 100 100 100 100 100 100